EW8944 Weather Reports


Display with metric or nautical units.
time (UTC)temp
F
wind
direction
speed
MPH
gust
MPH
rain 1hr
in
rain 24hr
in
rain mn
in
humidity
%
barometer
mb
20260506174605 70 12 5.0 10.0 0.00 0.00 0.00 49 1023.4
20260506174102 71 345 6.0 14.0 0.00 0.00 0.00 47 1023.4
20260506173602 71 38 7.0 14.0 0.00 0.00 0.00 48 1023.4
20260506173059 70 0 6.0 11.0 0.00 0.00 0.00 47 1023.4
20260506172844 69 5 5.0 11.0 0.00 0.00 0.00 53 1023.4
20260506172343 67 329 5.0 10.0 0.00 0.00 0.00 53 1023.4
20260506171541 66 340 4.0 10.0 0.00 0.00 0.00 49 1023.3
20260506171333 66 329 3.0 8.0 0.00 0.00 0.00 52 1023.3
20260506170540 66 19 2.0 6.0 0.00 0.00 0.00 56 1023.3
20260506170037 66 340 3.0 6.0 0.00 0.00 0.00 51 1023.4
20260506165536 64 61 2.0 6.0 0.00 0.00 0.00 55 1023.3
20260506165032 63 89 2.0 6.0 0.00 0.00 0.00 55 1023.4
20260506164531 64 9 3.0 6.0 0.00 0.00 0.00 65 1023.4
20260506164033 62 106 3.0 6.0 0.00 0.00 0.00 60 1023.4
20260506163531 62 48 4.0 8.0 0.00 0.00 0.00 65 1023.4
20260506163030 60 117 4.0 8.0 0.00 0.00 0.00 65 1023.4
20260506162530 59 128 4.0 7.0 0.00 0.00 0.00 62 1023.4
20260506162030 59 157 4.0 7.0 0.00 0.00 0.00 65 1023.3
20260506161530 58 163 4.0 9.0 0.00 0.00 0.00 65 1023.4
20260506161030 58 123 5.0 10.0 0.00 0.00 0.00 62 1023.4
20260506160530 57 142 6.0 10.0 0.00 0.00 0.00 66 1023.4
20260506160029 57 152 6.0 10.0 0.00 0.00 0.00 65 1023.3
20260506155820 56 141 5.0 8.0 0.00 0.00 0.00 67 1023.4
20260506155030 56 141 4.0 8.0 0.00 0.00 0.00 67 1023.4
20260506154530 55 144 4.0 9.0 0.00 0.00 0.00 69 1023.4
20260506154029 55 198 5.0 9.0 0.00 0.00 0.00 70 1023.3
20260506153620 54 155 5.0 9.0 0.00 0.00 0.00 70 1023.3
20260506153606 54 106 5.0 9.0 0.00 0.00 0.00 68 1023.3
20260506152529 54 139 4.0 9.0 0.00 0.00 0.00 69 1023.1
20260506152030 53 146 4.0 9.0 0.00 0.00 0.00 69 1023.3
20260506151530 53 161 5.0 9.0 0.00 0.00 0.00 70 1023.3
20260506151029 53 192 5.0 9.0 0.00 0.00 0.00 68 1023.3
20260506150531 53 150 4.0 7.0 0.00 0.00 0.00 69 1023.1
20260506150032 53 192 5.0 8.0 0.00 0.00 0.00 69 1023.1
20260506145530 52 165 4.0 8.0 0.00 0.00 0.00 73 1023.1
20260506145030 52 165 4.0 7.0 0.00 0.00 0.00 72 1023.1
20260506144818 51 168 4.0 7.0 0.00 0.00 0.00 71 1023.0
20260506144030 51 184 4.0 7.0 0.00 0.00 0.00 73 1023.0
20260506143529 50 168 3.0 6.0 0.00 0.00 0.00 74 1023.0
20260506143030 49 306 4.0 6.0 0.00 0.01 0.00 76 1023.0
20260506142530 49 162 3.0 6.0 0.00 0.01 0.00 77 1022.9
20260506142029 48 227 3.0 5.0 0.00 0.01 0.00 78 1022.8
20260506141529 48 194 2.0 5.0 0.00 0.01 0.00 80 1022.7
20260506141331 47 190 1.0 3.0 0.00 0.01 0.00 82 1022.7
20260506140529 46 265 0.0 2.0 0.00 0.01 0.00 84 1022.4
20260506140029 46 337 1.0 2.0 0.00 0.01 0.00 84 1022.4
20260506135530 47 48 1.0 3.0 0.00 0.01 0.00 84 1022.3
20260506135408 47 177 2.0 5.0 0.00 0.01 0.00 81 1022.2
20260506135403 47 48 1.0 5.0 0.00 0.01 0.00 83 1022.3
20260506134327 46 178 2.0 4.0 0.00 0.01 0.00 81 1022.0
20260506133529 46 246 3.0 4.0 0.00 0.01 0.00 81 1022.0
20260506133028 46 237 3.0 5.0 0.00 0.01 0.00 81 1021.9
20260506132527 45 239 3.0 5.0 0.00 0.01 0.00 82 1021.9
20260506132029 45 240 3.0 5.0 0.00 0.01 0.00 82 1021.9
20260506131530 45 217 2.0 5.0 0.00 0.01 0.00 81 1021.6
20260506131028 45 184 1.0 3.0 0.00 0.01 0.00 82 1021.6
20260506130528 46 187 2.0 3.0 0.00 0.01 0.00 81 1021.5
20260506130025 46 187 3.0 4.0 0.00 0.01 0.00 81 1021.4
20260506125526 46 261 2.0 4.0 0.00 0.01 0.00 82 1021.3
20260506125320 45 200 1.0 3.0 0.00 0.01 0.00 82 1021.2
20260506124524 46 200 2.0 4.0 0.00 0.01 0.00 80 1021.2
20260506124329 46 200 2.0 4.0 0.00 0.01 0.00 80 1021.2
20260506123524 46 185 1.0 3.0 0.00 0.01 0.00 80 1021.2
20260506123024 47 152 1.0 2.0 0.00 0.02 0.00 79 1021.2
20260506122523 46 152 0.0 2.0 0.00 0.02 0.00 80 1021.1
20260506122021 47 152 0.0 2.0 0.00 0.02 0.00 79 1020.9
20260506121555 47 152 0.0 3.0 0.00 0.02 0.00 77 1020.8
20260506121544 47 152 0.0 1.0 0.00 0.02 0.00 79 1020.9
20260506120522 48 152 1.0 3.0 0.00 0.02 0.00 76 1020.7
20260506120014 48 190 2.0 3.0 0.00 0.02 0.00 75 1020.6
20260506115851 49 190 2.0 4.0 0.00 0.02 0.00 75 1020.5
20260506115544 49 190 2.0 4.0 0.00 0.02 0.00 74 1020.6
20260506114813 49 155 2.0 4.0 0.00 0.02 0.00 76 1020.5
20260506114015 48 175 2.0 4.0 0.00 0.02 0.00 78 1020.2
20260506113515 47 205 1.0 4.0 0.00 0.02 0.00 80 1020.2
20260506113014 47 183 2.0 4.0 0.00 0.02 0.00 79 1020.2
20260506112514 49 183 2.0 4.0 0.00 0.02 0.00 76 1020.1
20260506112011 48 211 2.0 4.0 0.00 0.02 0.00 77 1020.1
20260506111511 48 175 3.0 5.0 0.00 0.02 0.00 77 1020.0
20260506111010 47 215 1.0 5.0 0.00 0.02 0.00 80 1020.0
20260506110511 46 222 0.0 1.0 0.00 0.02 0.00 81 1019.9
20260506110010 47 222 2.0 5.0 0.00 0.02 0.00 79 1020.0
20260506105803 48 222 4.0 5.0 0.00 0.02 0.00 78 1019.8
20260506105314 47 241 4.0 5.0 0.00 0.02 0.00 79 1019.8
20260506104508 47 238 4.0 6.0 0.00 0.02 0.00 80 1019.8
20260506104310 47 252 3.0 6.0 0.00 0.02 0.00 79 1019.7
20260506103508 47 246 4.0 6.0 0.00 0.03 0.00 78 1019.7
20260506103303 48 190 5.0 7.0 0.00 0.03 0.00 77 1019.6
20260506102510 48 171 5.0 7.0 0.00 0.03 0.00 78 1019.7
20260506102008 47 171 4.0 7.0 0.00 0.03 0.00 78 1019.7
20260506101507 48 173 2.0 7.0 0.00 0.03 0.00 78 1019.4
20260506101304 48 175 1.0 4.0 0.00 0.03 0.00 77 1019.4
20260506100508 49 151 2.0 3.0 0.00 0.03 0.00 75 1019.3
20260506100005 49 151 2.0 3.0 0.00 0.03 0.00 74 1019.2
20260506095502 49 151 3.0 4.0 0.00 0.03 0.00 73 1019.2
20260506095259 50 180 2.0 4.0 0.00 0.03 0.00 73 1019.2
20260506094502 49 200 2.0 4.0 0.00 0.04 0.00 74 1019.2
20260506094002 50 217 2.0 3.0 0.00 0.04 0.00 73 1019.1
20260506093754 50 217 1.0 3.0 0.00 0.04 0.00 73 1019.0
20260506093003 50 194 2.0 5.0 0.00 0.04 0.00 74 1019.1
20260506092500 50 162 3.0 7.0 0.00 0.04 0.00 72 1019.1
20260506092056 51 245 4.0 8.0 0.00 0.04 0.00 72 1019.0
20260506092040 51 219 4.0 7.0 0.00 0.04 0.00 71 1018.9
20260506091258 50 257 4.0 8.0 0.00 0.04 0.00 72 1019.0
20260506090502 50 259 5.0 8.0 0.00 0.04 0.00 73 1018.9
20260506090002 50 234 5.0 8.0 0.00 0.04 0.00 74 1019.0
20260506085503 49 237 5.0 8.0 0.00 0.04 0.00 74 1018.7
20260506085002 49 243 5.0 8.0 0.00 0.04 0.00 74 1018.7
20260506084501 50 257 5.0 8.0 0.00 0.05 0.00 74 1018.9
20260506084003 50 238 6.0 8.0 0.00 0.05 0.00 73 1018.7
20260506083502 50 254 5.0 8.0 0.00 0.05 0.00 73 1018.9
20260506083002 50 208 5.0 8.0 0.00 0.05 0.00 73 1018.7
20260506082501 50 250 4.0 8.0 0.00 0.05 0.00 73 1018.9
20260506082002 50 226 4.0 6.0 0.00 0.05 0.00 73 1018.9
20260506081556 51 211 3.0 7.0 0.00 0.05 0.00 72 1018.7
20260506081541 51 255 4.0 7.0 0.00 0.05 0.00 72 1018.9
20260506080503 51 217 3.0 6.0 0.00 0.06 0.00 71 1018.7
20260506073503 53 107 3.0 4.0 0.00 0.06 0.00 69 1018.5
20260506073003 53 123 2.0 4.0 0.00 0.06 0.00 70 1018.4
20260506072600 51 135 1.0 3.0 0.00 0.07 0.00 74 1018.3
20260506072540 52 141 2.0 4.0 0.00 0.06 0.00 72 1018.4
20260506071752 51 136 1.0 3.0 0.00 0.07 0.00 76 1018.4
20260506071002 51 135 1.0 3.0 0.00 0.07 0.00 74 1018.3
20260506070502 52 136 0.0 2.0 0.00 0.07 0.00 73 1018.3
20260506062448 54 230 6.0 14.0 0.00 0.08 0.07 67 1017.9
20260506061948 54 210 7.0 11.0 0.00 0.08 0.07 67 1018.1
20260506061448 54 223 7.0 11.0 0.00 0.08 0.07 67 1017.8
20260506060947 54 266 7.0 10.0 0.00 0.08 0.07 66 1017.6
20260506060450 55 229 6.0 9.0 0.00 0.08 0.07 66 1017.5
20260506050947 56 169 4.0 11.0 0.00 0.08 0.07 65 1016.7
20260506050731 56 140 3.0 7.0 0.00 0.08 0.07 65 1016.6
20260506044944 57 159 5.0 8.0 0.00 0.09 0.07 62 1016.6
20260506044447 57 174 5.0 8.0 0.00 0.09 0.07 62 1016.7
20260506044238 57 160 7.0 12.0 0.00 0.09 0.07 62 1016.6
20260506043441 57 125 6.0 12.0 0.00 0.09 0.07 62 1016.3
20260506042940 57 153 4.0 7.0 0.00 0.09 0.07 62 1016.3
20260506042441 58 163 4.0 7.0 0.00 0.09 0.07 60 1016.2
20260506041940 58 180 4.0 7.0 0.00 0.09 0.07 59 1016.2
20260506041726 58 165 2.0 7.0 0.00 0.09 0.07 58 1016.1
20260506040941 58 182 2.0 6.0 0.00 0.09 0.07 57 1016.0
20260506040442 58 227 4.0 9.0 0.00 0.09 0.07 58 1016.0
20260506035941 58 173 5.0 10.0 0.00 0.09 0.07 59 1016.0
20260506035437 59 200 6.0 12.0 0.00 0.09 0.07 60 1015.7
20260506034936 59 223 5.0 12.0 0.00 0.09 0.07 59 1015.6
20260506034435 59 220 4.0 8.0 0.00 0.10 0.07 60 1015.5
20260506033935 59 229 4.0 13.0 0.00 0.10 0.07 59 1015.5
20260506033434 60 230 4.0 13.0 0.00 0.10 0.07 58 1015.5
20260506032935 60 191 4.0 9.0 0.00 0.10 0.07 57 1015.4
20260506032432 60 215 5.0 10.0 0.00 0.10 0.07 55 1015.4
20260506031931 60 240 5.0 10.0 0.00 0.10 0.07 54 1015.3
20260506031535 59 234 5.0 9.0 0.00 0.10 0.07 55 1015.3
20260506031517 60 232 6.0 10.0 0.00 0.10 0.07 54 1015.3
20260506030430 59 267 4.0 7.0 0.00 0.10 0.07 56 1015.2
20260506025933 59 250 4.0 6.0 0.00 0.10 0.07 56 1015.0
20260506025429 59 229 4.0 7.0 0.00 0.10 0.07 57 1015.2
20260506024929 60 217 5.0 8.0 0.00 0.10 0.07 55 1015.2
20260506024722 60 268 5.0 8.0 0.00 0.10 0.07 55 1015.0
20260506023922 60 285 4.0 8.0 0.00 0.10 0.07 57 1014.9
20260506023415 60 230 3.0 6.0 0.00 0.10 0.07 57 1014.9
20260506022910 60 252 4.0 7.0 0.00 0.11 0.07 56 1014.8
20260506022409 61 224 4.0 7.0 0.00 0.11 0.07 55 1014.7
20260506021910 61 240 4.0 7.0 0.00 0.11 0.07 54 1014.7
20260506021410 62 225 4.0 7.0 0.00 0.11 0.07 53 1014.6
20260506020909 62 194 5.0 9.0 0.00 0.11 0.07 51 1014.6
20260506020704 63 182 5.0 10.0 0.00 0.11 0.07 50 1014.5
20260506015908 63 186 5.0 10.0 0.00 0.11 0.07 50 1014.5
20260506015408 63 178 6.0 10.0 0.00 0.11 0.07 50 1014.5
20260506015017 63 108 6.0 12.0 0.00 0.12 0.07 50 1014.4
20260506014956 63 202 6.0 12.0 0.00 0.11 0.07 51 1014.5
20260506013905 63 163 5.0 10.0 0.00 0.12 0.07 50 1014.4
20260506013405 64 173 4.0 9.0 0.00 0.12 0.07 50 1014.5
20260506012905 63 169 5.0 9.0 0.00 0.12 0.07 50 1014.5
20260506012655 64 154 6.0 9.0 0.00 0.12 0.07 48 1014.5
20260506011902 64 182 6.0 10.0 0.00 0.12 0.07 49 1014.4
20260506011403 64 169 6.0 10.0 0.00 0.12 0.07 48 1014.5
20260506010902 65 192 5.0 11.0 0.00 0.12 0.07 48 1014.5
20260506010401 64 171 6.0 11.0 0.00 0.12 0.07 49 1014.5
20260506005902 64 167 6.0 10.0 0.00 0.12 0.07 49 1014.4
20260506005401 64 194 6.0 11.0 0.00 0.13 0.07 50 1014.4
20260506004901 65 147 6.0 11.0 0.00 0.13 0.07 49 1014.4
20260506004401 65 167 7.0 11.0 0.00 0.13 0.07 49 1014.4
20260506003901 65 163 6.0 10.0 0.00 0.13 0.07 51 1014.5
20260506003401 65 139 6.0 13.0 0.00 0.13 0.07 52 1014.5
20260506002901 65 149 7.0 13.0 0.00 0.13 0.07 48 1014.5
20260506002403 65 140 6.0 12.0 0.00 0.13 0.07 47 1014.4
20260506001954 66 103 4.0 12.0 0.00 0.13 0.07 47 1014.5
20260506001938 66 104 6.0 12.0 0.00 0.13 0.07 50 1014.4
20260506001134 66 188 4.0 7.0 0.00 0.13 0.07 47 1014.5
20260506000401 66 146 5.0 9.0 0.00 0.13 0.07 46 1014.5
20260506000152 65 109 6.0 10.0 0.00 0.13 0.07 49 1014.5
20260505235401 66 115 5.0 10.0 0.00 0.13 0.07 48 1014.6
20260505234902 66 134 3.0 8.0 0.00 0.13 0.07 50 1014.6
20260505234402 65 178 5.0 9.0 0.00 0.13 0.07 51 1014.5
20260505234158 66 101 4.0 9.0 0.00 0.14 0.07 50 1014.5
20260505233403 69 67 4.0 8.0 0.00 0.14 0.07 49 1014.5
20260505232850 69 44 5.0 11.0 0.00 0.14 0.07 54 1014.6
20260505232344 67 92 3.0 11.0 0.00 0.14 0.07 49 1014.7
20260505231838 67 303 3.0 8.0 0.00 0.14 0.07 49 1014.8
20260505231331 64 10 3.0 8.0 0.00 0.14 0.07 48 1014.7
20260505230829 66 213 3.0 8.0 0.00 0.14 0.07 50 1014.7
20260505230320 65 229 3.0 8.0 0.00 0.14 0.07 48 1014.8
20260505225814 65 147 5.0 9.0 0.00 0.14 0.07 48 1014.9
20260505225308 65 155 4.0 9.0 0.00 0.14 0.07 52 1014.9
20260505225100 67 101 2.0 7.0 0.00 0.14 0.07 52 1015.0
20260505224600 65 333 1.0 4.0 0.00 0.14 0.07 57 1015.0
20260505224059 65 249 2.0 5.0 0.00 0.14 0.07 49 1015.2
20260505223307 66 339 3.0 6.0 0.00 0.14 0.07 48 1015.0
20260505222808 69 355 4.0 7.0 0.00 0.14 0.07 44 1015.2
20260505222603 71 59 4.0 7.0 0.00 0.14 0.07 54 1015.3
20260505222059 69 67 3.0 6.0 0.00 0.14 0.07 54 1015.3
20260505221305 69 5 4.0 8.0 0.00 0.14 0.07 55 1015.3
20260505221102 65 93 4.0 8.0 0.00 0.14 0.07 54 1015.3
20260505220302 63 155 5.0 9.0 0.00 0.14 0.07 55 1015.4
20260505215803 63 157 5.0 10.0 0.00 0.14 0.07 54 1015.4
20260505215600 63 132 3.0 10.0 0.00 0.14 0.07 61 1015.4
20260505214804 63 245 2.0 5.0 0.00 0.14 0.07 62 1015.5
20260505214302 64 313 4.0 9.0 0.00 0.14 0.07 53 1015.6
20260505213846 62 105 4.0 10.0 0.00 0.15 0.07 62 1015.7
20260505213834 67 13 5.0 10.0 0.00 0.14 0.07 60 1015.7
20260505212851 62 189 4.0 12.0 0.00 0.15 0.07 57 1015.9
20260505212836 61 85 4.0 12.0 0.00 0.15 0.07 62 1015.9
20260505211801 61 82 4.0 10.0 0.00 0.15 0.07 63 1016.0
20260505211301 63 134 5.0 10.0 0.00 0.15 0.07 65 1016.0
20260505210801 61 106 5.0 9.0 0.00 0.15 0.07 65 1016.1
20260505210301 63 128 6.0 10.0 0.00 0.15 0.07 67 1016.1
20260505205800 62 103 4.0 10.0 0.00 0.15 0.07 61 1016.2
20260505205305 61 190 3.0 7.0 0.00 0.15 0.07 65 1016.2
20260505204802 61 161 3.0 8.0 0.00 0.15 0.07 72 1016.2
20260505204301 61 182 4.0 10.0 0.00 0.15 0.07 65 1016.2
20260505203802 60 138 5.0 10.0 0.00 0.16 0.07 62 1016.3
20260505203300 58 57 5.0 9.0 0.00 0.16 0.07 66 1016.2
20260505202800 59 180 5.0 12.0 0.00 0.16 0.07 65 1016.2
20260505202301 58 132 6.0 12.0 0.00 0.16 0.07 70 1016.3
20260505201802 60 150 5.0 10.0 0.00 0.16 0.07 67 1016.2
20260505201302 57 139 4.0 9.0 0.00 0.16 0.07 67 1016.3
20260505200801 57 170 5.0 10.0 0.00 0.16 0.07 70 1016.3
20260505200303 56 184 6.0 11.0 0.00 0.17 0.07 78 1016.6
20260505195801 55 199 6.0 12.0 0.00 0.17 0.07 73 1016.4
20260505195557 55 146 5.0 12.0 0.00 0.17 0.07 76 1016.6
20260505194800 54 185 5.0 9.0 0.00 0.17 0.07 74 1016.6
20260505194301 55 163 5.0 11.0 0.00 0.17 0.07 73 1016.6
20260505193802 55 128 6.0 11.0 0.00 0.17 0.07 72 1016.7
20260505193300 55 172 6.0 11.0 0.00 0.18 0.07 72 1016.6
20260505192801 53 182 6.0 11.0 0.00 0.18 0.07 76 1016.4
20260505192305 53 138 5.0 11.0 0.00 0.18 0.07 78 1016.4
20260505191802 53 144 6.0 11.0 0.00 0.18 0.07 74 1016.6
20260505191556 53 127 7.0 12.0 0.00 0.18 0.07 76 1016.6
20260505190802 52 119 7.0 12.0 0.00 0.18 0.07 76 1016.3
20260505190301 53 161 6.0 12.0 0.00 0.18 0.07 77 1016.4
20260505185857 51 150 8.0 13.0 0.00 0.18 0.07 76 1016.4
20260505185840 52 125 7.0 13.0 0.00 0.18 0.07 80 1016.3
20260505184801 52 167 7.0 13.0 0.00 0.18 0.07 81 1016.3
20260505184302 51 138 7.0 13.0 0.00 0.18 0.07 79 1016.4
20260505183802 52 142 6.0 12.0 0.00 0.18 0.07 78 1016.3
20260505183300 51 146 5.0 10.0 0.00 0.18 0.07 81 1016.3
20260505183057 50 146 6.0 10.0 0.00 0.18 0.07 78 1016.4
20260505182305 50 146 6.0 10.0 0.00 0.18 0.07 78 1016.4
20260505182057 50 94 5.0 9.0 0.00 0.18 0.07 83 1016.3
20260505181555 50 133 5.0 9.0 0.00 0.18 0.07 80 1016.3
20260505181051 50 137 7.0 13.0 0.00 0.18 0.07 83 1016.3
20260505180301 49 146 8.0 13.0 0.00 0.18 0.07 83 1016.2
20260505175801 49 113 7.0 11.0 0.00 0.18 0.07 81 1016.1
20260505175305 49 122 6.0 11.0 0.00 0.18 0.07 86 1016.0